Location: Jackson Park
(37.2862°N, 79.9123°W)
Time: 12:09:59
(UTC+00:00)

Vanguard 2 Rocket - Pass Details

Date: 14 May 2026
Orbit: 553 x 3286 km, 32.9° (Epoch: 11 June)

Event Time Altitude Azimuth Distance (km) Brightness Sun altitude
Rises 18:37:43 0° 265° (W) 5,990 11.4 64.3°
Reaches altitude 10° 18:41:09 10° 264° (W) 5,265 11.3 63.8°
Maximum altitude 18:58:22 77° 182° (S) 3,278 11.2 61.0°
Drops below altitude 10° 19:18:17 10° 101° (E) 5,958 10.9 57.5°
Sets 19:22:28 0° 100° (E) 6,773 11.1 56.8°
